Location: Monxton
(51.1833°N, 1.5500°W)
Time: 06:30:32
(UTC+00:00)

Daily predictions for brighter satellites

Satellite Brightness Start Highest point End
(mag) Time Altitude Azimuth Time Altitude Azimuth Time Altitude Azimuth
CSL-04 Rocket 4.0 17:52:28 10° SE 17:57:44 47° ENE 18:02:58 10° N
Cosmos 1238 Rocket 4.3 17:52:36 10° SSE 17:58:38 49° E 18:05:02 10° NNE
Cosmos 2297 Rocket 4.3 17:57:57 10° N 17:59:12 11° N 18:00:27 10° NNE
Okean-O 2.8 17:57:48 10° SSE 18:02:14 85° WSW 18:06:43 10° NNW
STARLINK-48 3.8 17:58:53 10° SW 18:02:42 54° SSE 18:06:31 10° ENE
CZ-4B R/B 4.3 18:00:58 10° NNW 18:02:59 15° WNW 18:05:01 10° W
STARLINK-60 3.0 18:02:26 10° WNW 18:05:44 80° NNE 18:09:02 10° ESE
Cosmos 2278 Rocket 2.8 18:00:49 10° SW 18:06:25 62° NW 18:12:03 10° NNE
Cosmos 1607 4.0 18:00:44 10° NW 18:07:04 85° NE 18:13:27 10° SE
NOSS 3-1 (C) 4.3 18:03:24 10° SSE 18:07:57 26° ESE 18:13:03 10° ENE
Cosmos 2228 Rocket 3.8 18:03:58 10° NNW 18:08:28 63° W 18:12:57 10° S
Cosmos 2100 Rocket 4.0 18:02:47 10° S 18:09:09 79° E 18:15:29 10° NNE
deb Kosmos-1763 4.0 18:05:48 10° NNW 18:09:29 70° ENE 18:13:09 10° SSE
CSL-04 Debris 4.3 18:05:14 10° SE 18:10:34 58° ENE 18:15:57 10° N
Envisat 3.9 18:05:54 10° S 18:10:53 56° W 18:15:55 10° NNW
NOAA 11 4.2 18:06:02 10° SSE 18:11:24 62° ENE 18:16:46 10° N
Cosmos 1777 Rocket 4.3 18:07:29 10° NNW 18:12:37 46° ENE 18:17:40 10° SE
Cosmos 2227 Rocket 4.3 18:15:45 10° N 18:17:23 11° NNE 18:18:59 10° NNE
Cosmos 1459 Rocket 3.9 18:12:12 10° S 18:18:15 85° E 18:24:21 10° N
Sich 1 3.2 18:14:19 10° SSE 18:18:24 46° E 18:22:31 10° NNE
COSMO-SKYMED 1 2.5 18:15:10 10° NNE 18:19:32 70° ESE 18:23:51 10° S
Cosmos 1805 Rocket 3.5 18:15:30 10° S 18:19:50 65° E 18:24:10 10° NNE
Cosmos 1992 Rocket 4.0 18:15:45 10° SSW 18:20:58 77° ESE 18:26:15 10° NNE
Cosmos 1862 Rocket 4.2 18:18:51 10° N 18:22:47 32° ENE 18:26:42 10° SE
Cosmos 44 3.6 18:19:06 10° NNW 18:23:15 41° NE 18:27:29 10° ESE
Cosmos 1707 Rocket 3.5 18:21:31 10° N 18:25:58 70° ENE 18:30:25 10° SSE
YAOGAN 6 4.1 18:23:03 10° S 18:26:23 41° W 18:29:44 10° NNW
Cosmos 1500 Rocket 4.5 18:22:33 10° SSW 18:26:56 54° WNW 18:31:21 10° N
Cosmos 2346 Rocket 4.5 18:20:42 10° N 18:27:00 79° E 18:33:13 10° SSE
FREGAT/IRIS 4.4 18:27:21 13° ENE 18:27:21 13° ENE 18:28:33 10° NNE
Cosmos 2061 Rocket 4.0 18:21:56 10° S 18:28:20 74° E 18:34:43 10° NNE
Cosmos 1782 4.0 18:25:07 10° NNW 18:29:01 48° W 18:32:51 10° SSW
Cosmos 1943 Rocket 2.8 18:26:17 10° S 18:31:12 33° ESE 18:36:07 10° NE
Cosmos 1725 Rocket 4.0 18:26:18 10° S 18:32:23 63° E 18:38:31 10° NNE
Meteor 1-10 Rocket 4.2 18:27:15 10° NNW 18:32:57 90° NW 18:38:32 10° S
HJ-1C 3.9 18:31:16 10° SE 18:34:20 36° ENE 18:37:25 10° N
SJ-6B 4.2 18:34:18 16° E 18:35:32 18° ENE 18:38:10 10° NNE
SL-4 R/B 3.9 18:32:34 10° W 18:36:50 33° SW 18:40:56 10° SSE
SL-27 R/B 2.3 18:35:01 10° NNW 18:38:22 61° ENE 18:41:39 10° SE
BREEZE-M DEB (TANK) 3.3 18:38:21 10° W 18:40:47 53° S 18:45:03 13° ESE
ADEOS Rocket 3.7 18:33:45 10° NNE 18:41:19 55° E 18:48:54 10° S
Cosmos 2285 Rocket 4.2 18:35:54 10° NNW 18:42:06 51° ENE 18:48:18 10° SE
Cosmos 1862 3.2 18:38:30 10° S 18:42:27 72° E 18:46:27 10° NNE
STARLINK-71 4.4 18:39:05 10° SSW 18:42:44 34° SE 18:44:56 19° E
STARLINK-79 4.5 18:40:36 10° SSW 18:44:12 32° SE 18:46:16 20° E
Cosmos 1340 3.7 18:41:53 10° SE 18:44:57 24° E 18:48:01 10° NE
Tsikada Rocket 4.0 18:38:52 10° N 18:45:16 86° E 18:51:42 10° S
STARLINK-78 4.4 18:42:14 10° SSW 18:45:52 33° SE 18:47:52 21° E
BREEZE-M DEB (TANK) 2.6 18:43:41 10° W 18:46:17 64° S 18:47:39 24° ESE
Cosmos 1802 Rocket 4.3 18:40:08 10° SSW 18:46:25 76° W 18:52:50 10° N
STARLINK-64 3.8 18:43:38 10° SW 18:47:01 40° SSE 18:48:49 23° E
STARLINK-57 4.3 18:43:54 10° SSW 18:47:34 35° SE 18:49:34 21° E
STARLINK-49 4.3 18:45:28 10° SSW 18:49:08 35° SE 18:51:02 22° E
H-2A R/B 2.6 18:44:55 10° SE 18:49:54 41° ENE 18:54:58 10° N
CRYOSAT 2 4.4 18:45:26 10° SSE 18:50:14 59° E 18:55:04 10° N
STARLINK-27 4.3 18:47:07 10° SSW 18:50:48 35° SE 18:52:38 23° E
USA 234 3.6 18:45:37 16° E 18:50:50 56° N 18:57:12 10° WNW
Cosmos 1864 Rocket 4.4 18:44:51 10° S 18:51:02 85° E 18:57:12 10° N
STARLINK-80 3.4 18:48:08 10° W 18:51:58 77° NNW 18:54:14 23° ENE
STARLINK-74 4.3 18:48:43 10° SSW 18:52:25 36° SE 18:54:12 24° E
Cosmos 2297 3.8 18:46:53 10° SSW 18:52:33 80° WNW 18:58:15 10° NNE
Lacrosse 4 Rocket 1.6 18:49:12 10° SW 18:53:25 76° NW 18:57:47 10° NNE
Okean 1-7 4.1 18:49:57 10° NNE 18:53:26 23° ENE 18:54:07 22° E
STARLINK-43 3.5 18:49:46 10° W 18:53:28 65° N 18:55:29 25° ENE
STARLINK-39 4.2 18:50:22 10° SSW 18:54:05 37° SE 18:55:49 24° E
Ariane Rocket 3.0 18:49:20 10° SSE 18:54:20 60° ENE 18:59:23 10° N
STARLINK-31 4.2 18:52:00 10° SW 18:55:44 38° SSE 18:57:25 25° E
Cosmos 921 Rocket 3.2 18:51:33 10° S 18:55:54 52° ESE 19:00:19 10° NNE
Cosmos 724 4.2 18:50:10 10° NW 18:55:59 69° NE 19:00:59 14° SE
USA 229 DEB 3.7 18:49:57 10° SSW 18:56:20 56° SE 19:03:04 10° NE
USA 229 3.7 18:50:05 10° SSW 18:56:26 56° SE 19:03:08 10° NE
CZ-2D R/B 3.8 18:53:02 10° S 18:56:53 62° W 19:00:46 10° NNW
Cosmos 1812 2.7 18:53:09 10° NNW 18:57:02 84° W 19:00:54 10° S
STARLINK-69 4.1 18:53:45 10° SW 18:57:32 41° SSE 18:59:13 27° E
SJ 16-02 2.7 18:54:44 10° N 18:58:09 21° NE 18:58:44 21° ENE
STARLINK-21 4.1 18:55:16 10° SW 18:59:02 40° SSE 19:00:37 27° E
CZ-2C R/B 3.7 18:55:15 10° SE 19:00:42 44° ENE 19:06:06 10° N
STARLINK-45 4.0 18:57:02 10° SW 19:00:52 44° SSE 19:02:27 29° E
DMSP B5D1-3 4.4 18:55:48 10° NNE 19:00:58 72° ESE 19:06:06 10° S
STARLINK-70 4.0 18:58:37 10° SW 19:02:27 43° SSE 19:03:56 29° E
Cosmos 1346 Rocket 3.5 18:59:19 10° SSE 19:02:51 31° E 19:06:24 10° NNE
NOSS 3-1 (A) 3.8 18:58:29 10° S 19:03:37 39° ESE 19:07:45 18° ENE
STARLINK-76 4.0 19:00:10 10° SW 19:03:59 43° SSE 19:05:23 30° E
YAOGAN 1 3.7 18:59:59 10° S 19:04:09 45° W 19:08:20 10° NNW
Cosmos 1833 4.3 18:59:22 10° NNW 19:05:06 58° NE 19:09:23 18° SE
Cosmos 2369 Rocket 2.4 19:00:01 10° S 19:05:24 47° ESE 19:10:52 10° NE
STARLINK-23 4.0 19:01:48 10° SW 19:05:37 44° SSE 19:06:59 31° E
STARLINK-33 3.1 19:02:59 10° SW 19:06:13 61° SSE 19:07:07 41° E
STARLINK-32 4.0 19:03:27 10° SW 19:07:17 44° SSE 19:08:35 32° ESE
MOS 1 4.3 19:02:02 10° SE 19:07:36 60° ENE 19:13:10 10° N
STARLINK-66 3.0 19:04:48 10° WSW 19:08:03 63° SSE 19:08:53 43° E
Cosmos 2016 Rocket 4.4 19:02:10 10° SSW 19:08:11 63° WNW 19:14:19 10° N
STARLINK-40 3.9 19:05:04 10° SW 19:08:55 45° SSE 19:10:09 34° ESE
STARLINK-55 3.0 19:05:49 10° WSW 19:09:04 65° SSE 19:09:53 45° E
FALCON 9 DEB 3.2 19:06:48 10° WNW 19:10:15 74° SSW 19:11:26 38° SE
STARLINK-44 3.9 19:06:41 10° SW 19:10:33 46° SSE 19:11:44 35° ESE
Cosmos 1656 Rocket 4.5 19:06:09 10° SSE 19:10:39 26° ESE 19:10:50 26° E
STARLINK-28 2.9 19:07:30 10° WSW 19:10:45 69° SSE 19:11:32 47° E
STARLINK-37 3.8 19:08:26 10° SW 19:12:19 49° SSE 19:13:29 36° ESE
Cosmos 1633 Rocket 3.0 19:08:46 10° S 19:13:07 85° WNW 19:17:30 10° N
STARLINK-26 3.1 19:10:01 10° WSW 19:13:31 81° NNW 19:14:32 43° ENE
STARLINK-36 3.9 19:09:58 10° SW 19:13:52 48° SSE 19:14:55 38° ESE
STARLINK-29 3.1 19:11:06 10° WNW 19:14:31 78° SSW 19:15:27 45° SE
Cosmos 44 Rocket 4.2 19:10:34 10° NNW 19:14:47 31° NNE 19:16:02 27° ENE
Cosmos 1937 Rocket 4.4 19:10:54 10° N 19:15:29 29° NE 19:16:26 27° ENE
STARLINK-68 3.8 19:11:46 10° SW 19:15:41 52° SSE 19:16:45 40° ESE
Cosmos 1666 Rocket 4.0 19:12:38 10° SSW 19:17:05 66° WNW 19:21:34 10° N
STARLINK-63 3.8 19:13:20 10° SW 19:17:15 52° SSE 19:18:14 41° ESE
Cosmos 1933 Rocket 3.7 19:13:29 10° SSE 19:17:43 46° E 19:21:57 10° NNE
STARLINK-35 3.8 19:14:54 10° SW 19:18:48 52° SSE 19:19:41 42° ESE
SL-08 RB Rocket 4.1 19:17:47 34° E 19:18:52 40° ENE 19:23:03 10° N
STARLINK-75 3.1 19:15:35 10° WSW 19:19:00 68° SSE 19:19:33 55° ESE
CZ-4 R/B 3.9 19:16:32 10° SSW 19:20:03 25° W 19:23:34 10° NW
STARLINK-51 3.7 19:16:34 10° SW 19:20:29 53° SSE 19:21:19 44° ESE
STARLINK-1023 3.8 19:18:05 10° SW 19:20:30 33° S 19:20:30 33° S
Okean 1 4.2 19:17:55 10° N 19:20:56 31° NE 19:20:56 31° NE
CENTAUR R/B 4.0 19:15:28 10° NW 19:21:54 33° N 19:26:39 19° ENE
STARLINK-30 3.7 19:18:11 10° SW 19:22:07 54° SSE 19:22:53 45° ESE
STARLINK 1040 3.8 19:20:33 10° SW 19:22:29 32° S 19:22:29 32° S
Lacrosse 5 rocket 2.5 19:18:58 10° W 19:23:15 41° N 19:25:18 26° NE
Cosmos 2263 4.4 19:18:05 10° S 19:23:35 48° ESE 19:28:01 16° NE
STARLINK-72 3.7 19:19:50 10° SW 19:23:46 55° SSE 19:24:28 47° ESE
STARLINK-22 3.1 19:20:26 10° WSW 19:23:49 62° SSE 19:24:04 60° SE
STARLINK-52 3.1 19:21:19 10° WNW 19:24:43 74° SSW 19:25:13 59° SE
Cosmos 2233 Rocket 4.0 19:18:49 10° S 19:24:59 86° W 19:31:13 10° N
STARLINK-42 2.8 19:22:00 10° WSW 19:25:15 72° SSE 19:25:22 70° SE
STARLINK-41 3.0 19:21:52 10° WSW 19:25:16 67° SSE 19:25:30 64° SE
STARLINK-50 3.7 19:21:28 10° SW 19:25:24 56° SSE 19:26:04 49° ESE
Meteor 1-27 Rocket 4.4 19:21:36 10° NNW 19:27:00 56° W 19:32:26 10° S
STARLINK-59 3.6 19:23:11 10° SW 19:27:09 59° SSE 19:27:46 51° ESE
Aureole 2 Rocket 3.9 19:24:55 10° SSW 19:25:47 19° SSW 19:25:47 19° SSW
STARLINK-56 3.6 19:24:44 10° SW 19:28:41 58° SSE 19:29:14 52° ESE
NOSS 2-3 (C) 4.2 19:24:55 10° S 19:29:00 39° ESE 19:29:03 39° ESE
STARLINK-1007 3.9 19:26:28 10° SW 19:28:45 35° S 19:28:45 35° S
ATLAS 3B R/B 4.0 19:23:55 10° WNW 19:29:33 28° N 19:33:27 17° NE
STARLINK-1014 4.1 19:27:07 10° SW 19:29:42 34° S 19:29:42 34° S
STARLINK-73 3.6 19:26:24 10° SW 19:30:22 60° SSE 19:30:50 55° ESE
SPOT 3 Rocket 3.6 19:28:41 31° SE 19:30:59 54° ENE 19:36:04 10° N
Cosmos 405 4.2 19:28:18 10° N 19:30:23 29° NNE 19:30:23 29° NNE
STARLINK-38 3.5 19:28:03 10° SW 19:32:02 61° SSE 19:32:27 57° ESE
Resurs 1-3 4.2 19:34:02 38° NE 19:34:02 38° NE 19:37:40 10° N
STARLINK-65 3.5 19:29:40 10° SW 19:33:38 62° SSE 19:34:00 59° SE
MetOp-A 4.3 19:33:18 38° ESE 19:34:46 48° ENE 19:39:55 10° N
Meteor 1-20 Rocket 4.2 19:29:57 10° S 19:35:13 52° E 19:40:35 10° NNE
STARLINK-61 3.3 19:31:20 10° WSW 19:35:15 85° SSE 19:35:43 67° E
STARLINK-53 3.5 19:31:24 10° SW 19:35:24 65° SSE 19:35:42 62° SE
ARGOS Delta rocket 3.7 19:35:43 51° E 19:36:15 55° ENE 19:40:35 10° N
STARLINK-1010 4.3 19:36:08 10° SW 19:38:02 31° SSW 19:38:02 31° SSW
ARGOS 3.1 19:36:21 13° SSE 19:41:17 84° ENE 19:46:45 10° NNW
STARLINK-48 3.5 19:37:25 10° W 19:41:19 69° N 19:41:39 64° NNE
Cosmos 2242 Rocket 3.7 19:36:59 10° NNW 19:41:31 76° W 19:46:03 10° S
Resurs 01 Rocket 2.7 19:42:59 30° NNE 19:42:59 30° NNE 19:45:50 10° N
STARLINK-60 4.4 19:39:06 10° W 19:42:03 30° SW 19:42:19 30° SSW
Cosmos 2297 Rocket 3.5 19:41:05 10° NNW 19:45:34 23° NE 19:45:46 23° NE
USA 238 DEB 4.5 19:39:19 10° NW 19:45:55 40° NNE 19:48:21 31° ENE
USA 238 4.5 19:39:25 10° NW 19:46:00 40° NNE 19:48:26 31° ENE
STARLINK-1008 4.4 19:44:12 10° SW 19:46:04 30° SW 19:46:04 30° SW
Meteor 2-11 Rocket 4.4 19:42:40 10° S 19:48:38 59° E 19:54:36 10° NNE
STARLINK-58 3.6 19:45:53 10° WSW 19:48:50 58° SW 19:48:50 58° SW
STARLINK-62 3.7 19:47:35 10° WSW 19:50:28 57° WSW 19:50:28 57° WSW
COSMOS 2487 3.4 19:48:01 10° NNW 19:50:19 39° NNW 19:50:19 39° NNW
STARLINK-34 3.8 19:49:10 10° WSW 19:52:00 54° WSW 19:52:00 54° WSW
Cosmos 1513 Rocket 4.3 19:48:55 10° S 19:54:56 68° E 20:01:03 10° NNE
Meteor 1-19 Rocket 4.2 19:50:54 10° N 19:56:49 69° ENE 19:58:12 50° SE
USA 267 4.0 19:57:58 31° SSE 19:57:58 31° SSE 20:02:37 10° SSW
Cosmos 1470 Rocket 4.2 19:52:50 10° SSW 19:57:06 55° WNW 20:01:27 10° N
Cosmos 1898 Rocket 3.3 19:52:30 10° NNW 19:57:42 69° ENE 19:58:05 66° E
NOSS 3-1 (C) 3.5 19:52:23 10° SW 19:58:04 75° NW 20:02:17 23° NE
Cosmos 1891 Rocket 4.3 19:57:21 10° S 20:03:29 79° E 20:09:49 10° NNE
Cosmos 2227 Rocket 3.5 19:58:53 10° NNW 20:03:09 26° NNE 20:03:09 26° NNE
Cosmos 44 4.3 20:00:22 10° NW 20:04:25 37° WSW 20:05:58 28° SSW
STARLINK-24 4.1 20:02:24 10° WSW 20:05:34 54° WSW 20:05:34 54° WSW
Meteor 1-25 Rocket 4.1 20:03:48 10° SSW 20:09:32 88° W 20:15:13 10° NNE
SJ-6B 3.5 20:09:55 48° W 20:09:55 48° W 20:13:33 10° NNW
Meteor 2-4 Rocket 3.8 20:07:18 10° N 20:12:50 60° ENE 20:12:50 60° ENE
Cosmos 1943 Rocket 2.9 20:09:20 10° SW 20:14:46 51° NW 20:20:10 10° NNE
Cosmos 1703 Rocket 4.3 20:12:43 10° NNW 20:17:03 53° W 20:17:57 45° SW
Cosmos 1340 4.4 20:17:02 10° SW 20:20:27 32° WNW 20:23:52 10° N
Cosmos 2219 4.0 20:16:42 10° NNW 20:21:15 39° NNE 20:21:15 39° NNE
Cosmos 1464 Rocket 4.1 20:21:48 10° SSW 20:28:08 74° W 20:34:34 10° N
H-2A R/B 3.5 20:24:24 10° SSW 20:29:21 38° W 20:34:25 10° NNW
Okean 1-7 4.1 20:27:07 10° NNW 20:31:01 43° W 20:31:01 43° W
Nadezhda 4 Rocket 4.0 20:25:09 10° NNW 20:31:26 78° W 20:33:03 52° S
Lacrosse 4 Rocket 3.9 20:29:51 10° WNW 20:32:51 18° NNW 20:34:41 15° N
USA 234 3.1 20:32:58 74° ESE 20:33:37 86° NNE 20:40:12 10° WNW
Timation 2 Rocket 4.1 20:27:41 10° NNW 20:34:34 81° WSW 20:35:37 66° S
SJ 16-02 2.6 20:32:46 10° NNW 20:35:45 40° NW 20:35:45 40° NW
Cosmos 2026 Rocket 4.5 20:32:40 10° N 20:37:19 47° NNE 20:37:19 47° NNE
NOSS 3-2 (C) 4.3 20:33:00 10° NW 20:39:49 47° NNE 20:40:22 46° NE
NOSS 3-2 (A) 4.1 20:33:54 10° NW 20:40:57 57° NE 20:41:23 57° NE
Cosmos 2034 Rocket 4.0 20:44:41 56° SW 20:46:02 75° WNW 20:52:13 10° N
USA 229 DEB 4.4 20:40:59 10° WSW 20:47:27 51° NNW 20:50:33 31° NNE
USA 229 4.3 20:41:05 10° WSW 20:47:33 51° NNW 20:50:37 31° NNE
Cosmos 2369 Rocket 3.4 20:44:17 10° WSW 20:49:35 39° NW 20:53:49 16° NNE
Cosmos 1656 Rocket 4.4 20:48:22 10° SW 20:52:22 46° WSW 20:52:22 46° WSW
NOSS 3-1 (A) 3.9 20:48:34 10° WSW 20:54:16 58° NW 20:55:16 52° N
Cosmos 2263 Rocket 4.4 20:51:23 10° N 20:53:44 15° NNE 20:53:44 15° NNE
Cosmos 1937 Rocket 4.4 20:52:38 10° NNW 20:56:38 46° WNW 20:56:38 46° WNW
Lacrosse 5 rocket 3.6 20:58:45 10° WNW 21:00:57 26° NW 21:00:57 26° NW
Cosmos 1092 Rocket 4.4 21:05:31 10° NNW 21:11:08 60° WNW 21:11:08 60° WNW
CENTAUR R/B 3.4 21:06:45 10° NW 21:13:50 55° NNE 21:13:50 55° NNE
Resurs 01 Rocket 4.0 21:20:33 20° NW 21:20:33 20° NW 21:22:18 10° NNW
ATLAS 3B R/B 3.6 21:15:37 10° NW 21:20:42 38° N 21:20:42 38° N
Cosmos 2297 Rocket 3.7 21:24:45 10° NNW 21:27:35 31° NNW 21:27:35 31° NNW
USA 238 DEB 4.3 21:30:27 10° NW 21:35:47 55° NW 21:35:47 55° NW
USA 238 4.3 21:30:33 10° NW 21:35:52 55° NW 21:35:52 55° NW
Cosmos 2227 Rocket 4.1 21:42:38 10° NNW 21:44:58 26° NNW 21:44:58 26° NNW
